This is the latest recevied weather packets stored in our database for station/object N2MLB-WX. If no packets are shown the sender has not sent any weather packets the latest 10 day(s).
| Time | Temp. | Humidity | Pressure | Rain* | Wind** | Luminosity | Snow |
|---|---|---|---|---|---|---|---|
| 1777928541 | 23.89° C | 36% | 999 hPa | 0 mm | - | 59 W/m² | - |
| 1777928242 | 23.33° C | 35% | 1000 hPa | 0 mm | - | 86 W/m² | - |
| 1777927941 | 24.44° C | 36% | 1000 hPa | 0 mm | - | 102 W/m² | - |
| 1777927642 | 24.44° C | 37% | 1000 hPa | 0 mm | - | 107 W/m² | - |
| 1777927340 | 24.44° C | 35% | 1000 hPa | 0 mm | - | 105 W/m² | - |
| 1777927040 | 22.78° C | 43% | 1000 hPa | 0 mm | - | 112 W/m² | - |
| 1777926742 | 23.33° C | 38% | 1000 hPa | 0 mm | - | 112 W/m² | - |
| 1777926442 | 23.33° C | 39% | 1000 hPa | 0 mm | - | 110 W/m² | - |
| 1777926143 | 24.44° C | 37% | 1000 hPa | 0 mm | - | 113 W/m² | - |
| 1777925840 | 22.78° C | 38% | 1000 hPa | 0 mm | - | 116 W/m² | - |
| 1777925540 | 22.78° C | 38% | 1000 hPa | 0 mm | - | 126 W/m² | - |
| 1777925242 | 22.78° C | 37% | 1000 hPa | 0 mm | - | 125 W/m² | - |
| 1777924940 | 24.44° C | 35% | 1000 hPa | 0 mm | - | 89 W/m² | - |
| 1777924642 | 26.11° C | 39% | 1001 hPa | 0 mm | - | 136 W/m² | - |
| 1777924342 | 23.89° C | 36% | 1001 hPa | 0 mm | - | 134 W/m² | - |
| 1777924044 | 24.44° C | 38% | 1001 hPa | 0 mm | - | 138 W/m² | - |
| 1777923744 | 23.33° C | 36% | 1001 hPa | 0 mm | - | 146 W/m² | - |
| 1777923441 | 25.56° C | 34% | 1001 hPa | 0 mm | - | 135 W/m² | - |
| 1777923143 | 24.44° C | 36% | 1001 hPa | 0 mm | - | 148 W/m² | - |
| 1777922842 | 22.22° C | 45% | 1001 hPa | 0 mm | - | 132 W/m² | - |
| 1777922540 | 22.78° C | 37% | 1001 hPa | 0 mm | - | 137 W/m² | - |
| 1777922241 | 21.67° C | 40% | 1001 hPa | 0 mm | - | 144 W/m² | - |
| 1777921941 | 22.78° C | 38% | 1001 hPa | 0 mm | - | 146 W/m² | - |
| 1777921639 | 24.44° C | 37% | 1001 hPa | 0 mm | - | 147 W/m² | - |
| 1777921342 | 23.89° C | 38% | 1001 hPa | 0 mm | - | 156 W/m² | - |
* Rain latest hour (hover to see other rain measurements)
** Current wind speed in m/s (hover to see current wind gust speed)